TimeCST,TemperatureF,Dew PointF,Humidity,Sea Level PressureIn,VisibilityMPH,Wind Direction,Wind SpeedMPH,Gust SpeedMPH,PrecipitationIn,Events,Conditions,WindDirDegrees,DateUTC
12:58 AM,34.0,21.2,60,30.07,10.0,NNE,23.0,-,N/A,,Overcast,20,2014-02-02 06:58:00
1:58 AM,32.0,21.7,66,30.08,10.0,NNE,18.4,-,N/A,,Overcast,20,2014-02-02 07:58:00
2:03 AM,32.0,21.2,64,30.05,10.0,NNE,19.6,-,N/A,,Overcast,20,2014-02-02 08:03:00
2:38 AM,32.0,23.0,69,30.06,10.0,North,20.7,28.8,N/A,,Overcast,10,2014-02-02 08:38:00
2:53 AM,32.0,23.0,69,30.07,10.0,NNE,16.1,27.6,N/A,,Overcast,20,2014-02-02 08:53:00
2:58 AM,31.1,22.6,71,30.09,10.0,NNE,18.4,24.2,N/A,,Overcast,20,2014-02-02 08:58:00
3:05 AM,32.0,23.0,69,30.06,10.0,North,20.7,24.2,N/A,,Overcast,10,2014-02-02 09:05:00
3:13 AM,32.0,23.0,69,30.06,10.0,NNE,23.0,27.6,N/A,,Overcast,20,2014-02-02 09:13:00
3:58 AM,31.1,22.8,71,30.09,10.0,North,19.6,25.3,0.00,,Overcast,10,2014-02-02 09:58:00
4:02 AM,32.0,23.0,69,30.07,10.0,NNE,19.6,25.3,N/A,Rain,Light Freezing Rain,20,2014-02-02 10:02:00
4:17 AM,32.0,23.0,69,30.08,10.0,North,17.3,23.0,N/A,Rain,Light Freezing Rain,10,2014-02-02 10:17:00
4:46 AM,30.2,23.0,75,30.10,10.0,North,16.1,-,N/A,,Overcast,10,2014-02-02 10:46:00
4:51 AM,30.2,23.0,75,30.09,9.0,NNE,15.0,-,N/A,Rain,Light Freezing Rain,20,2014-02-02 10:51:00
4:58 AM,30.2,24.4,79,30.12,9.0,NNE,18.4,-,0.00,Rain,Light Freezing Rain,30,2014-02-02 10:58:00
5:09 AM,30.2,26.6,86,30.09,10.0,NNE,17.3,23.0,N/A,Rain,Light Freezing Rain,20,2014-02-02 11:09:00
5:14 AM,30.2,26.6,86,30.10,10.0,North,17.3,-,N/A,Rain,Light Freezing Rain,10,2014-02-02 11:14:00
5:19 AM,30.2,26.6,86,30.09,10.0,NNE,17.3,-,N/A,Rain,Light Freezing Rain,20,2014-02-02 11:19:00
5:32 AM,30.2,26.6,86,30.13,10.0,North,15.0,-,N/A,Rain,Light Freezing Rain,360,2014-02-02 11:32:00
5:49 AM,30.2,26.6,86,30.10,10.0,North,12.7,-,N/A,Rain-Thunderstorm,Light Freezing Rain,10,2014-02-02 11:49:00
5:58 AM,29.5,26.4,88,30.14,10.0,NNE,15.0,-,0.01,Rain-Thunderstorm,Light Freezing Rain,20,2014-02-02 11:58:00
6:10 AM,30.2,26.6,86,30.13,9.0,North,15.0,-,N/A,Rain-Thunderstorm,Light Freezing Rain,10,2014-02-02 12:10:00
6:22 AM,30.2,28.4,93,30.11,7.0,NNE,15.0,21.9,N/A,Rain-Thunderstorm,Light Freezing Rain,20,2014-02-02 12:22:00
6:47 AM,28.4,26.6,93,30.10,7.0,North,18.4,-,N/A,Rain-Thunderstorm,Light Freezing Rain,10,2014-02-02 12:47:00
6:48 AM,28.4,26.6,93,30.10,6.0,North,19.6,-,N/A,Rain-Thunderstorm,Light Freezing Rain,10,2014-02-02 12:48:00
6:58 AM,28.2,25.9,91,30.14,6.0,NNE,16.1,-,0.12,Rain-Thunderstorm,Light Freezing Rain,20,2014-02-02 12:58:00
7:09 AM,28.4,26.6,93,30.14,7.0,NNE,18.4,21.9,N/A,Rain-Thunderstorm,Light Freezing Rain,20,2014-02-02 13:09:00
7:36 AM,28.4,26.6,93,30.15,6.0,NNE,17.3,-,N/A,Rain,Light Freezing Rain,30,2014-02-02 13:36:00
7:48 AM,28.4,26.6,93,30.17,5.0,NNE,12.7,-,N/A,,Light Ice Pellets,20,2014-02-02 13:48:00
7:52 AM,28.4,26.6,93,30.17,4.0,North,12.7,-,N/A,,Light Ice Pellets,10,2014-02-02 13:52:00
7:58 AM,28.4,26.6,93,30.20,3.0,NNE,11.5,-,0.06,,Light Ice Pellets,20,2014-02-02 13:58:00
8:53 AM,26.6,24.8,93,30.16,6.0,NNE,17.3,24.2,N/A,Rain,Light Freezing Rain,20,2014-02-02 14:53:00
8:58 AM,26.6,24.8,93,30.19,7.0,NNE,13.8,24.2,0.03,,Light Ice Pellets,30,2014-02-02 14:58:00
9:56 AM,26.6,24.8,93,30.22,10.0,North,15.0,-,N/A,,Mostly Cloudy,360,2014-02-02 15:56:00
9:58 AM,26.8,23.9,89,30.27,10.0,North,13.8,-,0.00,,Mostly Cloudy,10,2014-02-02 15:58:00
10:54 AM,26.6,23.0,86,30.24,9.0,North,13.8,-,N/A,,Mostly Cloudy,360,2014-02-02 16:54:00
10:58 AM,26.1,23.2,89,30.29,9.0,North,11.5,-,0.00,,Mostly Cloudy,360,2014-02-02 16:58:00
11:51 AM,26.6,23.0,86,30.24,10.0,North,16.1,-,N/A,,Mostly Cloudy,360,2014-02-02 17:51:00
11:56 AM,26.6,23.0,86,30.23,10.0,North,17.3,-,N/A,,Scattered Clouds,10,2014-02-02 17:56:00
11:58 AM,26.2,22.8,87,30.27,10.0,North,16.1,-,0.01,,Scattered Clouds,10,2014-02-02 17:58:00
12:55 PM,26.6,23.0,86,30.19,10.0,North,15.0,-,N/A,,Overcast,10,2014-02-02 18:55:00
12:58 PM,26.2,22.5,86,30.26,10.0,North,15.0,-,0.00,,Overcast,10,2014-02-02 18:58:00
1:04 PM,26.6,23.0,86,30.20,10.0,North,12.7,21.9,N/A,,Mostly Cloudy,360,2014-02-02 19:04:00
1:58 PM,26.2,22.3,85,30.25,10.0,North,15.0,23.0,0.00,,Mostly Cloudy,360,2014-02-02 19:58:00
2:58 PM,26.6,22.5,84,30.25,10.0,North,13.8,-,N/A,,Mostly Cloudy,360,2014-02-02 20:58:00
3:28 PM,26.6,23.0,86,30.19,10.0,North,13.8,-,N/A,,Mostly Cloudy,360,2014-02-02 21:28:00
3:58 PM,27.3,22.8,83,30.26,10.0,North,12.7,-,N/A,,Mostly Cloudy,10,2014-02-02 21:58:00
4:08 PM,26.6,23.0,86,30.20,10.0,North,11.5,-,N/A,,Mostly Cloudy,10,2014-02-02 22:08:00
4:13 PM,26.6,23.0,86,30.21,10.0,North,12.7,-,N/A,,Mostly Cloudy,360,2014-02-02 22:13:00
4:23 PM,26.6,23.0,86,30.20,10.0,North,12.7,-,N/A,,Mostly Cloudy,360,2014-02-02 22:23:00
4:28 PM,26.6,23.0,86,30.21,10.0,North,13.8,-,N/A,,Mostly Cloudy,360,2014-02-02 22:28:00
4:38 PM,26.6,23.0,86,30.22,10.0,North,12.7,-,N/A,,Overcast,360,2014-02-02 22:38:00
4:58 PM,27.7,23.0,83,30.28,10.0,North,12.7,-,N/A,,Overcast,360,2014-02-02 22:58:00
5:08 PM,28.4,23.0,80,30.22,10.0,North,11.5,-,N/A,,Overcast,10,2014-02-02 23:08:00
5:33 PM,28.4,23.0,80,30.23,10.0,North,11.5,-,N/A,,Overcast,10,2014-02-02 23:33:00
5:38 PM,28.4,23.0,80,30.22,10.0,North,11.5,-,N/A,,Mostly Cloudy,10,2014-02-02 23:38:00
5:43 PM,28.4,23.0,80,30.23,10.0,North,11.5,-,N/A,,Mostly Cloudy,10,2014-02-02 23:43:00
5:53 PM,28.4,23.0,80,30.22,10.0,NNE,9.2,-,N/A,,Overcast,20,2014-02-02 23:53:00
5:58 PM,27.9,23.5,84,30.28,10.0,NNE,11.5,-,N/A,,Overcast,20,2014-02-02 23:58:00
6:08 PM,28.4,23.0,80,30.21,10.0,NNE,9.2,-,N/A,,Overcast,30,2014-02-03 00:08:00
6:53 PM,28.4,23.0,80,30.21,10.0,NNE,9.2,-,N/A,,Mostly Cloudy,30,2014-02-03 00:53:00
6:58 PM,27.7,23.4,84,30.28,10.0,NNE,9.2,-,N/A,,Mostly Cloudy,30,2014-02-03 00:58:00
7:08 PM,28.4,23.0,80,30.23,10.0,North,4.6,-,N/A,,Overcast,10,2014-02-03 01:08:00
7:33 PM,26.6,23.0,86,30.23,10.0,North,10.4,-,N/A,,Overcast,10,2014-02-03 01:33:00
7:38 PM,26.6,23.0,86,30.23,10.0,North,8.1,-,N/A,,Overcast,360,2014-02-03 01:38:00
7:53 PM,26.6,23.0,86,30.23,10.0,North,8.1,-,N/A,,Overcast,360,2014-02-03 01:53:00
7:58 PM,27.3,22.8,83,30.30,10.0,North,9.2,-,N/A,,Overcast,360,2014-02-03 01:58:00
8:58 PM,26.4,21.9,83,30.32,10.0,North,6.9,-,N/A,,Mostly Cloudy,10,2014-02-03 02:58:00
9:08 PM,26.6,21.2,80,30.24,10.0,North,6.9,-,N/A,,Scattered Clouds,10,2014-02-03 03:08:00
9:58 PM,24.4,20.8,86,30.32,10.0,NW,2.3,-,N/A,,Partly Cloudy,320,2014-02-03 03:58:00
10:58 PM,23.2,19.8,87,30.33,10.0,NNW,4.6,-,N/A,,Clear,340,2014-02-03 04:58:00
11:58 PM,23.0,19.8,87,30.34,10.0,WNW,3.5,-,N/A,,Clear,300,2014-02-03 05:58:00